Skip Page Navigation
NASA JPL Caltech
NASA Logo - Jet Propulsion Laboratory + View the NASA Portal
+ Center for Near-Earth Object Studies
JPL Home Earth Solar System Stars & Galaxies Technology
JPL Solar System Dynamics
BODIES ORBITS EPHEMERIDES TOOLS PHYSICAL DATA DISCOVERY FAQ SITE MAP
JPL Small-Body Database Browser
Search: [ help ]  
382914 (2004 RK199)
Classification: Main-belt Asteroid          SPK-ID: 2382914
Ephemeris | Orbit Diagram | Orbital Elements | Mission Design | Physical Parameters | Discovery Circumstances ]

[ hide orbit diagram ]

For accurate long-term ephemerides, please instead use our Horizons system.This orbit viewer was implemented using two-body methods, and hence should not be used for determining accurate long-term trajectories (over several years or decades) or planetary encounter circumstances.


Orbital Elements at Epoch 2459200.5 (2020-Dec-17.0) TDB
Reference: JPL 15 (heliocentric ecliptic J2000)
 Element Value Uncertainty (1-sigma)   Units 
e .2975169108628971 7.5685e-08  
a 2.641740957672481 2.4476e-08 au
q 1.855778348645773 1.9942e-07 au
i 13.09183429285528 8.2557e-06 deg
node 354.9577195479547 3.3221e-05 deg
peri 5.145288527520497 3.6811e-05 deg
M 293.5849754094859 2.2741e-05 deg
tp 2459489.832758907443
(2021-Oct-02.33275891)
0.00010222 TDB
period 1568.316715214411
4.29
2.1796e-05
5.967e-08
d
yr
n .2295454715923136 3.1902e-09 deg/d
Q 3.427703566699189 3.1758e-08 au
  Orbit Determination Parameters
   # obs. used (total)      176  
   data-arc span      5766 days (15.79 yr)  
   first obs. used      2004-08-11  
   last obs. used      2020-05-25  
   planetary ephem.      DE431  
   SB-pert. ephem.      SB431-N16  
   condition code      0  
   norm. resid. RMS      .62803  
   source      ORB  
   producer      Otto Matic  
   solution date      2020-Nov-12 17:39:14  

Additional Information
 Earth MOID = .851061 au 
 Jupiter MOID = 2.03044 au 
 T_jup = 3.295 
[ hide covariance matrix ]
Orbital Elements at Epoch 2457521.5 (2016-May-13.0) TDB
Reference: JPL 15 (heliocentric ecliptic J2000)
 Element Value Uncertainty (1-sigma)   Units 
e .2969243017867839 7.5715e-08  
q 1.857398422971926 1.9913e-07 au
tp 2457922.592282946438
(2017-Jun-18.09228295)
8.5873e-05 TDB
node 354.9759127400147 3.3225e-05 deg
peri 5.312019859744192 3.6815e-05 deg
i 13.08957634950688 8.2549e-06 deg
  Orbit Determination Parameters
   # obs. used (total)      176  
   data-arc span      5766 days (15.79 yr)  
   first obs. used      2004-08-11  
   last obs. used      2020-05-25  
   planetary ephem.      DE431  
   SB-pert. ephem.      SB431-N16  
   condition code      0  
   norm. resid. RMS      .62803  
   source      ORB  
   producer      Otto Matic  
   solution date      2020-Nov-12 17:39:14  

Additional Information
 Jupiter MOID = 2.03044 au 
 T_jup = 3.295 
Orbit Covariance (6×6)
  e q tp node peri i
e 5.732772246178688E-15 -1.502021785957447E-14 2.54956930275478E-12 -3.768045429993008E-14 4.653688904944852E-13 2.296141644358802E-16
q -1.502021785957447E-14 3.965352435611499E-14 -5.707769929648673E-12 9.221026866211332E-14 -1.058073190839917E-12 5.572927791877156E-16
tp 2.54956930275478E-12 -5.707769929648673E-12 7.374249828935828E-9 -8.590859095026773E-11 1.430490429552533E-9 -8.505447175534429E-12
node -3.768045429993008E-14 9.221026866211332E-14 -8.590859095026773E-11 1.103899103423277E-9 -1.089451362740392E-9 8.047965541335627E-11
peri 4.653688904944852E-13 -1.058073190839917E-12 1.430490429552533E-9 -1.089451362740392E-9 1.355335237347411E-9 -8.049386251539686E-11
i 2.296141644358802E-16 5.572927791877156E-16 -8.505447175534429E-12 8.047965541335627E-11 -8.049386251539686E-11 6.814350321170631E-11

Ephemeris | Orbit Diagram | Orbital Elements | Mission Design | Physical Parameters | Discovery Circumstances ]

Physical Parameter Table
Parameter Symbol Value Units Sigma Reference Notes
absolute magnitude H 16.41   n/a E2021B25  

382914 (2004 RK199)          Discovered 2004-Sep-10 by LINEAR at Socorro
Reference: Last Updated: 2014-01-21
Ephemeris | Orbit Diagram | Orbital Elements | Mission Design | Physical Parameters | Discovery Circumstances ]
ABOUT SSD CREDITS/AWARDS PRIVACY/COPYRIGHT GLOSSARY LINKS
FirstGov 2021-Apr-14 03:25 UT
(server date/time)  
NASA Home Page
Site Manager:   Ryan S. Park
Webmaster  Alan B. Chamberlin